GLO4522 SBRF-SBFZ

Flight info

Callsign GLO4522
Flight time 1h 1m
Altitude 32000
Route IROSI UZ81 TENUB
Aircraft B738/M-SDE2E3FGHIRWXY/LB1

Departure

Time 2026-05-01 10:01
Airport Recife/Guararapes - Gilberto Freyre International Airport (SBRF)

Arrival

Time 2026-05-01 11:02
Airport Pinto Martins International Airport (SBFZ)
Time Latitude Longitude Altitude Speed Heading
2026-05-01 09:47 -8.13191 -34.91902 38 ft 0 kts 72°
2026-05-01 09:53 -8.13193 -34.91908 35 ft 4 kts 72°
2026-05-01 09:53 -8.13202 -34.91934 37 ft 4 kts 65°
2026-05-01 09:53 -8.13215 -34.91957 36 ft 4 kts 49°
2026-05-01 09:54 -8.13234 -34.91974 36 ft 2 kts 30°
2026-05-01 09:54 -8.13236 -34.91975 35 ft 1 kts 30°
2026-05-01 09:55 -8.13234 -34.91975 37 ft 2 kts 26°
2026-05-01 09:56 -8.13216 -34.91980 30 ft 7 kts 340°
2026-05-01 09:56 -8.13122 -34.92012 37 ft 21 kts 341°
2026-05-01 09:56 -8.12959 -34.92066 35 ft 26 kts 342°
2026-05-01 09:56 -8.12793 -34.92120 37 ft 24 kts 341°
2026-05-01 09:57 -8.12639 -34.92171 36 ft 23 kts 342°
2026-05-01 09:57 -8.12490 -34.92220 35 ft 22 kts 342°
2026-05-01 09:57 -8.12345 -34.92268 35 ft 22 kts 341°
2026-05-01 09:57 -8.12205 -34.92314 34 ft 21 kts 342°
2026-05-01 09:58 -8.12068 -34.92359 33 ft 20 kts 342°
2026-05-01 09:58 -8.11938 -34.92401 31 ft 20 kts 341°
2026-05-01 09:58 -8.11809 -34.92444 32 ft 19 kts 342°
2026-05-01 09:58 -8.11685 -34.92484 31 ft 18 kts 342°
2026-05-01 09:59 -8.11574 -34.92542 32 ft 18 kts 321°
2026-05-01 09:59 -8.11479 -34.92621 31 ft 18 kts 320°
2026-05-01 09:59 -8.11419 -34.92695 31 ft 2 kts 269°
2026-05-01 09:59 -8.11430 -34.92707 31 ft 2 kts 206°
2026-05-01 10:00 -8.11444 -34.92705 31 ft 2 kts 165°
2026-05-01 10:00 -8.11611 -34.92652 31 ft 61 kts 162°
2026-05-01 10:00 -8.12249 -34.92444 34 ft 129 kts 162°
2026-05-01 10:00 -8.13273 -34.92096 168 ft 176 kts 161°
2026-05-01 10:01 -8.14493 -34.91680 781 ft 195 kts 161°
2026-05-01 10:01 -8.15808 -34.91227 1447 ft 203 kts 161°
2026-05-01 10:01 -8.17182 -34.90755 1989 ft 214 kts 160°
2026-05-01 10:01 -8.18584 -34.90311 2676 ft 210 kts 161°
2026-05-01 10:02 -8.19960 -34.89824 3156 ft 216 kts 147°
2026-05-01 10:02 -8.20698 -34.89127 3317 ft 225 kts 123°
2026-05-01 10:02 -8.21142 -34.87604 3810 ft 234 kts 91°
2026-05-01 10:02 -8.20699 -34.85971 4289 ft 252 kts 64°
2026-05-01 10:03 -8.19696 -34.84484 5001 ft 257 kts 56°
2026-05-01 10:03 -8.18587 -34.83070 5838 ft 257 kts 54°
2026-05-01 10:03 -8.17464 -34.81651 6545 ft 261 kts 54°
2026-05-01 10:03 -8.16334 -34.80205 7237 ft 263 kts 54°
2026-05-01 10:04 -8.15216 -34.78755 8021 ft 261 kts 55°
2026-05-01 10:04 -8.14104 -34.77296 8734 ft 264 kts 55°
2026-05-01 10:04 -8.12982 -34.75814 9440 ft 268 kts 54°
2026-05-01 10:04 -8.11839 -34.74301 10126 ft 273 kts 54°
2026-05-01 10:05 -8.10680 -34.72780 10930 ft 275 kts 52°
2026-05-01 10:05 -8.09133 -34.71573 11484 ft 294 kts 28°
2026-05-01 10:05 -8.07034 -34.71137 11624 ft 327 kts 359°
2026-05-01 10:05 -8.04724 -34.71644 11830 ft 352 kts 346°
2026-05-01 10:06 -8.02326 -34.72417 11969 ft 371 kts 345°
2026-05-01 10:06 -7.99839 -34.73218 11972 ft 376 kts 346°
2026-05-01 10:06 -7.97349 -34.73990 11956 ft 373 kts 346°
2026-05-01 10:06 -7.94873 -34.74782 11978 ft 374 kts 343°
2026-05-01 10:07 -7.92418 -34.75685 11976 ft 376 kts 342°
2026-05-01 10:07 -7.89975 -34.76626 11988 ft 376 kts 342°
2026-05-01 10:07 -7.87526 -34.77569 11993 ft 377 kts 342°
2026-05-01 10:07 -7.85072 -34.78502 11980 ft 377 kts 342°
2026-05-01 10:08 -7.80187 -34.80332 11979 ft 376 kts 342°
2026-05-01 10:08 -7.77784 -34.81447 11960 ft 379 kts 327°
2026-05-01 10:08 -7.75906 -34.83267 12048 ft 387 kts 306°
2026-05-01 10:09 -7.74599 -34.85646 12628 ft 389 kts 298°
2026-05-01 10:09 -7.73402 -34.88098 13206 ft 391 kts 297°
2026-05-01 10:09 -7.72216 -34.90578 13741 ft 395 kts 297°
2026-05-01 10:09 -7.71017 -34.93083 14225 ft 398 kts 297°
2026-05-01 10:10 -7.69802 -34.95601 14709 ft 401 kts 297°
2026-05-01 10:10 -7.68632 -34.98170 15198 ft 405 kts 292°
2026-05-01 10:10 -7.66214 -35.03334 16146 ft 411 kts 299°
2026-05-01 10:11 -7.64881 -35.05891 16618 ft 414 kts 299°
2026-05-01 10:11 -7.63543 -35.08480 17109 ft 418 kts 299°
2026-05-01 10:11 -7.62219 -35.11095 17573 ft 421 kts 298°
2026-05-01 10:11 -7.60900 -35.13745 18030 ft 424 kts 298°
2026-05-01 10:12 -7.59583 -35.16416 18450 ft 428 kts 298°
2026-05-01 10:12 -7.58259 -35.19112 18840 ft 430 kts 298°
2026-05-01 10:12 -7.55587 -35.24550 19641 ft 435 kts 298°
2026-05-01 10:13 -7.54242 -35.27283 20035 ft 437 kts 298°
2026-05-01 10:13 -7.52883 -35.30038 20434 ft 439 kts 298°
2026-05-01 10:13 -7.51521 -35.32798 20818 ft 442 kts 298°
2026-05-01 10:14 -7.48773 -35.38368 21559 ft 446 kts 297°
2026-05-01 10:14 -7.47391 -35.41170 21932 ft 448 kts 297°
2026-05-01 10:14 -7.45999 -35.43991 22302 ft 450 kts 297°
2026-05-01 10:14 -7.44604 -35.46819 22683 ft 452 kts 297°
2026-05-01 10:15 -7.43199 -35.49665 23017 ft 454 kts 297°
2026-05-01 10:15 -7.41615 -35.52412 23336 ft 455 kts 310°
2026-05-01 10:15 -7.39363 -35.54641 23657 ft 454 kts 322°
2026-05-01 10:15 -7.36925 -35.56660 23981 ft 454 kts 323°
2026-05-01 10:16 -7.34463 -35.58666 24269 ft 456 kts 323°
2026-05-01 10:16 -7.32004 -35.60686 24547 ft 457 kts 322°
2026-05-01 10:16 -7.27091 -35.64797 25106 ft 460 kts 322°
2026-05-01 10:17 -7.24668 -35.66845 25375 ft 462 kts 322°
2026-05-01 10:17 -7.19735 -35.71015 25901 ft 464 kts 322°
2026-05-01 10:17 -7.17250 -35.73100 26159 ft 466 kts 322°
2026-05-01 10:18 -7.12238 -35.77267 26661 ft 468 kts 322°
2026-05-01 10:18 -7.09729 -35.79365 26900 ft 470 kts 322°
2026-05-01 10:18 -7.07211 -35.81481 27143 ft 471 kts 322°
2026-05-01 10:19 -7.04693 -35.83598 27373 ft 473 kts 322°
2026-05-01 10:19 -7.02162 -35.85721 27600 ft 474 kts 322°
2026-05-01 10:19 -6.99618 -35.87841 27816 ft 475 kts 322°
2026-05-01 10:20 -6.94506 -35.92089 28224 ft 478 kts 322°
2026-05-01 10:20 -6.91941 -35.94221 28422 ft 479 kts 322°
2026-05-01 10:20 -6.89369 -35.96360 28620 ft 480 kts 322°
2026-05-01 10:20 -6.86791 -35.98505 28831 ft 482 kts 322°
2026-05-01 10:21 -6.84207 -36.00655 29066 ft 483 kts 322°
2026-05-01 10:21 -6.79041 -36.04954 29717 ft 479 kts 321°
2026-05-01 10:21 -6.76483 -36.07082 30046 ft 478 kts 321°
2026-05-01 10:22 -6.71357 -36.11345 30506 ft 478 kts 321°
2026-05-01 10:22 -6.66242 -36.15598 31004 ft 476 kts 321°
2026-05-01 10:23 -6.63687 -36.17722 31259 ft 475 kts 321°
2026-05-01 10:23 -6.58600 -36.21950 31762 ft 474 kts 321°
2026-05-01 10:23 -6.56061 -36.24060 32019 ft 473 kts 321°
2026-05-01 10:24 -6.45816 -36.32570 32013 ft 478 kts 321°
2026-05-01 10:25 -6.35580 -36.41070 32015 ft 476 kts 321°
2026-05-01 10:26 -6.30524 -36.45303 32018 ft 476 kts 320°
2026-05-01 10:27 -6.20312 -36.53787 32010 ft 476 kts 321°
2026-05-01 10:28 -6.12632 -36.60131 32003 ft 477 kts 321°
2026-05-01 10:28 -6.04951 -36.66495 31997 ft 478 kts 321°
2026-05-01 10:29 -5.97253 -36.72886 31989 ft 479 kts 321°
2026-05-01 10:30 -5.86975 -36.81412 31985 ft 480 kts 321°
2026-05-01 10:31 -5.76687 -36.89942 31984 ft 479 kts 321°
2026-05-01 10:32 -5.68978 -36.96331 31982 ft 479 kts 321°
2026-05-01 10:33 -5.58718 -37.04832 31983 ft 478 kts 321°
2026-05-01 10:34 -5.51027 -37.11202 31990 ft 478 kts 321°
2026-05-01 10:34 -5.45925 -37.15425 31983 ft 479 kts 321°
2026-05-01 10:35 -5.38126 -37.21680 31982 ft 478 kts 322°
2026-05-01 10:35 -5.32911 -37.25831 31984 ft 478 kts 321°
2026-05-01 10:36 -5.25072 -37.32101 31985 ft 479 kts 321°
2026-05-01 10:37 -5.19899 -37.36239 31983 ft 479 kts 321°
2026-05-01 10:37 -5.12418 -37.42437 31979 ft 479 kts 320°
2026-05-01 10:38 -5.07304 -37.46636 31975 ft 472 kts 321°
2026-05-01 10:38 -5.02199 -37.50767 31964 ft 471 kts 321°
2026-05-01 10:39 -4.99626 -37.52843 31383 ft 477 kts 321°
2026-05-01 10:39 -4.97047 -37.54926 30767 ft 476 kts 321°
2026-05-01 10:39 -4.94468 -37.57015 30076 ft 477 kts 321°
2026-05-01 10:39 -4.91898 -37.59106 29493 ft 474 kts 321°
2026-05-01 10:40 -4.89354 -37.61187 28904 ft 470 kts 321°
2026-05-01 10:40 -4.86838 -37.63253 28364 ft 465 kts 321°
2026-05-01 10:40 -4.84351 -37.65307 27828 ft 461 kts 321°
2026-05-01 10:40 -4.81889 -37.67350 27306 ft 457 kts 321°
2026-05-01 10:41 -4.79455 -37.69380 26793 ft 454 kts 321°
2026-05-01 10:41 -4.77044 -37.71402 26287 ft 450 kts 321°
2026-05-01 10:41 -4.72287 -37.75427 25256 ft 445 kts 322°
2026-05-01 10:42 -4.69941 -37.77430 24741 ft 443 kts 322°
2026-05-01 10:42 -4.67605 -37.79436 24225 ft 441 kts 322°
2026-05-01 10:42 -4.65289 -37.81438 23718 ft 439 kts 322°
2026-05-01 10:42 -4.62984 -37.83443 23140 ft 438 kts 321°
2026-05-01 10:43 -4.60698 -37.85441 22594 ft 434 kts 321°
2026-05-01 10:43 -4.58433 -37.87426 22083 ft 431 kts 321°
2026-05-01 10:43 -4.56190 -37.89397 21586 ft 427 kts 321°
2026-05-01 10:43 -4.53965 -37.91354 21091 ft 424 kts 321°
2026-05-01 10:44 -4.51760 -37.93293 20613 ft 421 kts 321°
2026-05-01 10:44 -4.49564 -37.95225 20111 ft 419 kts 321°
2026-05-01 10:44 -4.47381 -37.97146 19629 ft 416 kts 321°
2026-05-01 10:44 -4.45210 -37.99056 19134 ft 414 kts 321°
2026-05-01 10:45 -4.43050 -38.00956 18653 ft 412 kts 321°
2026-05-01 10:45 -4.40899 -38.02847 18159 ft 411 kts 321°
2026-05-01 10:45 -4.38759 -38.04728 17646 ft 408 kts 321°
2026-05-01 10:45 -4.36639 -38.06589 17176 ft 404 kts 321°
2026-05-01 10:46 -4.34535 -38.08434 16758 ft 399 kts 321°
2026-05-01 10:46 -4.32445 -38.10227 16322 ft 393 kts 326°
2026-05-01 10:46 -4.30171 -38.11666 15805 ft 382 kts 334°
2026-05-01 10:46 -4.27868 -38.12912 15335 ft 380 kts 335°
2026-05-01 10:47 -4.25506 -38.14157 14877 ft 375 kts 335°
2026-05-01 10:47 -4.23263 -38.15347 14436 ft 365 kts 335°
2026-05-01 10:47 -4.21055 -38.16536 14001 ft 356 kts 334°
2026-05-01 10:47 -4.18906 -38.17705 13532 ft 348 kts 334°
2026-05-01 10:48 -4.16805 -38.18858 13069 ft 340 kts 334°
2026-05-01 10:48 -4.14768 -38.19980 12781 ft 328 kts 334°
2026-05-01 10:48 -4.12805 -38.21064 12492 ft 317 kts 334°
2026-05-01 10:48 -4.10905 -38.22113 12209 ft 307 kts 334°
2026-05-01 10:49 -4.09065 -38.23129 11935 ft 298 kts 334°
2026-05-01 10:49 -4.07875 -38.23786 11779 ft 292 kts 334°
2026-05-01 10:49 -4.06121 -38.24755 11578 ft 286 kts 334°
2026-05-01 10:49 -4.04354 -38.25728 11374 ft 293 kts 334°
2026-05-01 10:50 -4.02555 -38.26719 11153 ft 297 kts 334°
2026-05-01 10:50 -4.00752 -38.27715 10909 ft 295 kts 334°
2026-05-01 10:50 -3.98965 -38.28703 10665 ft 292 kts 334°
2026-05-01 10:50 -3.97189 -38.29684 10431 ft 291 kts 334°
2026-05-01 10:51 -3.95422 -38.30659 10198 ft 289 kts 334°
2026-05-01 10:51 -3.93753 -38.31783 9939 ft 294 kts 317°
2026-05-01 10:51 -3.92661 -38.33509 9705 ft 297 kts 292°
2026-05-01 10:51 -3.92069 -38.35488 9471 ft 297 kts 286°
2026-05-01 10:52 -3.91557 -38.37494 9213 ft 297 kts 285°
2026-05-01 10:52 -3.91056 -38.39498 8957 ft 297 kts 285°
2026-05-01 10:52 -3.90547 -38.41501 8714 ft 296 kts 285°
2026-05-01 10:52 -3.90032 -38.43497 8471 ft 296 kts 285°
2026-05-01 10:53 -3.89511 -38.45487 8222 ft 295 kts 285°
2026-05-01 10:53 -3.88989 -38.47469 7977 ft 293 kts 285°
2026-05-01 10:53 -3.88477 -38.49402 7721 ft 280 kts 284°
2026-05-01 10:53 -3.87991 -38.51231 7461 ft 265 kts 284°
2026-05-01 10:54 -3.87528 -38.52972 7209 ft 254 kts 284°
2026-05-01 10:54 -3.87080 -38.54658 6967 ft 248 kts 283°
2026-05-01 10:54 -3.86647 -38.56329 6733 ft 249 kts 283°
2026-05-01 10:54 -3.86216 -38.58015 6516 ft 252 kts 282°
2026-05-01 10:55 -3.85780 -38.59720 6284 ft 252 kts 282°
2026-05-01 10:55 -3.85345 -38.61420 6034 ft 252 kts 282°
2026-05-01 10:55 -3.84916 -38.63095 5795 ft 251 kts 282°
2026-05-01 10:55 -3.84481 -38.64790 5560 ft 251 kts 282°
2026-05-01 10:56 -3.84046 -38.66486 5291 ft 251 kts 283°
2026-05-01 10:56 -3.83612 -38.68177 5058 ft 250 kts 283°
2026-05-01 10:56 -3.83187 -38.69832 4790 ft 241 kts 283°
2026-05-01 10:56 -3.82461 -38.71294 4519 ft 233 kts 315°
2026-05-01 10:57 -3.81137 -38.72129 4205 ft 222 kts 348°
2026-05-01 10:57 -3.79646 -38.72265 3894 ft 212 kts 13°
2026-05-01 10:57 -3.78232 -38.71957 3593 ft 206 kts 21°
2026-05-01 10:57 -3.76853 -38.71572 3294 ft 205 kts 22°
2026-05-01 10:58 -3.75484 -38.71184 3045 ft 201 kts 24°
2026-05-01 10:58 -3.74413 -38.70463 2988 ft 178 kts 67°
2026-05-01 10:58 -3.74165 -38.69298 2927 ft 174 kts 92°
2026-05-01 10:58 -3.74084 -38.68086 2709 ft 173 kts 91°
2026-05-01 10:59 -3.74142 -38.66909 2482 ft 164 kts 101°
2026-05-01 10:59 -3.74303 -38.65821 2313 ft 151 kts 103°
2026-05-01 10:59 -3.74517 -38.64801 2174 ft 152 kts 107°
2026-05-01 10:59 -3.74779 -38.63779 1969 ft 149 kts 108°
2026-05-01 11:00 -3.75043 -38.62790 1775 ft 146 kts 108°
2026-05-01 11:00 -3.75315 -38.61790 1587 ft 151 kts 109°
2026-05-01 11:00 -3.75587 -38.60787 1374 ft 151 kts 109°
2026-05-01 11:00 -3.75860 -38.59776 1186 ft 149 kts 108°
2026-05-01 11:01 -3.76134 -38.58763 986 ft 149 kts 108°
2026-05-01 11:01 -3.76403 -38.57777 792 ft 150 kts 109°
2026-05-01 11:01 -3.76689 -38.56732 577 ft 159 kts 109°
2026-05-01 11:01 -3.76981 -38.55691 386 ft 151 kts 107°
2026-05-01 11:02 -3.77242 -38.54704 195 ft 144 kts 108°
2026-05-01 11:02 -3.77500 -38.53757 88 ft 134 kts 104°
2026-05-01 11:02 -3.77675 -38.53092 74 ft 63 kts 105°
2026-05-01 11:02 -3.77757 -38.52788 71 ft 36 kts 105°
2026-05-01 11:03 -3.77808 -38.52633 69 ft 14 kts 140°
2026-05-01 11:03 -3.77878 -38.52672 69 ft 13 kts 243°
2026-05-01 11:03 -3.77915 -38.52753 69 ft 13 kts 254°
2026-05-01 11:03 -3.77896 -38.52838 72 ft 13 kts 285°
2026-05-01 11:04 -3.77868 -38.52945 72 ft 19 kts 284°
2026-05-01 11:04 -3.77829 -38.53084 81 ft 22 kts 285°
2026-05-01 11:04 -3.77789 -38.53236 82 ft 23 kts 285°
2026-05-01 11:04 -3.77746 -38.53397 84 ft 24 kts 284°
2026-05-01 11:05 -3.77701 -38.53565 84 ft 26 kts 285°
2026-05-01 11:05 -3.77660 -38.53732 86 ft 23 kts 271°
2026-05-01 11:05 -3.77726 -38.53874 89 ft 22 kts 256°
2026-05-01 11:05 -3.77697 -38.54018 87 ft 20 kts 287°
2026-05-01 11:06 -3.77722 -38.54098 88 ft 12 kts 194°
2026-05-01 11:06 -3.77760 -38.54108 91 ft 0 kts 194°